Wright-Patt AFB, OH

4:20 AM EDT on October 18, 2017 (GMT -0400)
Wright-Patterson Air Force Base

Weather History for KFFO - July, 2013

Change the Weather History Date:

Sunday, July 7, 2013

  Actual Average Record
Temperature  
Mean Temperature 72 °F -  
Max Temperature 80 °F 81 °F 102 °F (2012)
Min Temperature 65 °F 60 °F 53 °F (2006)
Cooling Degree Days 8    
Growing Degree Days 22 (Base 50)    
Moisture  
Dew Point 60 °F    
Average Humidity 69    
Maximum Humidity 88    
Minimum Humidity 46    
Precipitation  
Precipitation 0.00 in - - ()
Sea Level Pressure  
Sea Level Pressure 30.10 in    
Wind  
Wind Speed 5 mph (SSW)    
Max Wind Speed 9 mph    
Max Gust Speed -    
Visibility 10 miles    
Events Rain    
Averages and records for this station are not official NWS values.
T = Trace of Precipitation, MM = Missing Value Source: NWS Daily Summary

Daily Weather History Graph

Daily Weather History Graph

Search for Another Location

Airport or City:

Trip Planner

Search our weather history database for the weather conditions in past years. The results will help you decide how hot, cold, wet, or windy it might be!

Date:

Astronomy

Jul. 07, 2013 Rise Set
Actual Time 6:15 AM EDT 9:06 PM EDT
Civil Twilight 5:42 AM EDT 9:39 PM EDT
Nautical Twilight 5:02 AM EDT 10:19 PM EDT
Astronomical Twilight 4:15 AM EDT 11:06 PM EDT
Moon 5:50 AM EDT (7/7) 8:30 PM EDT (7/7)
Length of Visible Light 15h 56m
Length of Day
14h 51m
Waning Crescent, 0% of the Moon is Illuminated
Jul 7
Waning Crescent
Jul 8
New
Jul 15
First Quarter
Jul 22
Full
Jul 29
Last Quarter

Hourly Weather History & Observations

Time (EDT) Temp. Heat Index Dew Point Humidity Pressure Visibility Wind Dir Wind Speed Gust Speed Precip Events Conditions
12:58 AM 68.0 °F - 60.8 °F 78% 30.12 in 10.0 mi SW 3.5 mph - N/A   Mostly Cloudy
1:56 AM 68.0 °F - 60.8 °F 78% 30.10 in 10.0 mi SSW 5.8 mph - N/A   Overcast
2:17 AM 68.0 °F - 60.8 °F 78% 30.10 in 10.0 mi SSW 4.6 mph - N/A   Overcast
2:58 AM 66.4 °F - 60.8 °F 82% 30.10 in 10.0 mi SSW 3.5 mph - N/A   Overcast
3:28 AM 66.2 °F - 60.8 °F 83% 30.10 in 10.0 mi South 4.6 mph - N/A   Overcast
3:55 AM 67.1 °F - 61.9 °F 83% 30.09 in 10.0 mi South 5.8 mph - N/A   Overcast
4:28 AM 66.2 °F - 60.8 °F 83% 30.09 in 10.0 mi SSE 5.8 mph - N/A   Overcast
4:58 AM 66.4 °F - 61.5 °F 84% 30.09 in 10.0 mi SSE 3.5 mph - N/A   Overcast
5:38 AM 66.2 °F - 60.8 °F 83% 30.09 in 10.0 mi SSE 5.8 mph - N/A   Mostly Cloudy
5:58 AM 65.7 °F - 61.5 °F 86% 30.09 in 10.0 mi South 4.6 mph - N/A   Mostly Cloudy
6:58 AM 66.2 °F - 62.6 °F 88% 30.10 in 10.0 mi SSW 2.3 mph - N/A   Mostly Cloudy
7:58 AM 67.1 °F - 63.0 °F 87% 30.11 in 10.0 mi South 5.8 mph - N/A   Overcast
8:28 AM 68.0 °F - 62.6 °F 83% 30.12 in 10.0 mi SSW 5.8 mph - N/A   Overcast
8:58 AM 68.5 °F - 62.1 °F 80% 30.13 in 10.0 mi South 8.1 mph - N/A   Overcast
9:26 AM 69.8 °F - 60.8 °F 73% 30.13 in 10.0 mi SW 4.6 mph - N/A   Overcast
9:46 AM 69.8 °F - 59.0 °F 68% 30.14 in 10.0 mi SW 4.6 mph - N/A   Overcast
9:58 AM 69.8 °F - 59.4 °F 69% 30.14 in 10.0 mi SW 8.1 mph - N/A   Overcast
10:58 AM 71.1 °F - 58.8 °F 65% 30.13 in 10.0 mi SW 6.9 mph - N/A   Overcast
11:32 AM 71.6 °F - 59.0 °F 64% 30.13 in 10.0 mi SW 6.9 mph - N/A Rain Light Rain
11:45 AM 71.6 °F - 59.0 °F 64% 30.13 in 10.0 mi SSW 4.6 mph - N/A   Mostly Cloudy
11:58 AM 72.5 °F - 58.1 °F 60% 30.13 in 10.0 mi SSW 4.6 mph - 0.00 in   Mostly Cloudy
12:08 PM 71.6 °F - 59.0 °F 64% 30.13 in 10.0 mi SSW 4.6 mph - N/A   Mostly Cloudy
12:18 PM 73.4 °F - 59.0 °F 61% 30.13 in 10.0 mi SSW 4.6 mph - N/A   Mostly Cloudy
12:28 PM 73.4 °F - 59.0 °F 61% 30.13 in 10.0 mi SW 5.8 mph - N/A   Mostly Cloudy
12:38 PM 73.4 °F - 59.0 °F 61% 30.12 in 10.0 mi Variable 2.3 mph - N/A   Mostly Cloudy
12:58 PM 74.1 °F - 59.0 °F 59% 30.12 in 10.0 mi SSW 6.9 mph - N/A   Mostly Cloudy
1:38 PM 73.4 °F - 59.0 °F 61% 30.12 in 10.0 mi SSW 6.9 mph - N/A   Overcast
1:58 PM 73.9 °F - 58.6 °F 59% 30.12 in 10.0 mi WSW 9.2 mph - N/A   Mostly Cloudy
2:58 PM 74.8 °F - 58.8 °F 57% 30.10 in 10.0 mi SSW 4.6 mph - N/A   Mostly Cloudy
3:58 PM 76.1 °F - 59.5 °F 56% 30.09 in 10.0 mi SSW 5.8 mph - N/A   Mostly Cloudy
4:58 PM 79.9 °F - 58.3 °F 48% 30.06 in 10.0 mi WSW 8.1 mph - N/A   Scattered Clouds
5:58 PM 80.2 °F 80.6 °F 57.9 °F 46% 30.05 in 10.0 mi WSW 8.1 mph - N/A   Scattered Clouds
6:58 PM 79.3 °F - 59.2 °F 50% 30.05 in 10.0 mi WSW 9.2 mph - N/A   Scattered Clouds
7:58 PM 77.5 °F - 59.2 °F 53% 30.06 in 10.0 mi WSW 5.8 mph - N/A   Mostly Cloudy
8:58 PM 74.7 °F - 60.6 °F 61% 30.07 in 10.0 mi SW 4.6 mph - N/A   Mostly Cloudy
9:47 PM 73.4 °F - 60.8 °F 65% 30.08 in 10.0 mi Calm Calm - N/A   Partly Cloudy
9:55 PM 73.8 °F - 60.3 °F 63% 30.07 in 10.0 mi South 4.6 mph - N/A   Mostly Cloudy
10:55 PM 73.6 °F - 61.5 °F 66% 30.09 in 10.0 mi Calm Calm - N/A   Mostly Cloudy
11:55 PM 72.3 °F - 62.1 °F 70% 30.09 in - South 3.5 mph - N/A   Overcast